This is the latest recevied weather packets stored in our database for station/object KD2ZLA. If no packets are shown the sender has not sent any weather packets the latest 1 day(s).
| Time | Temp. | Humidity | Pressure | Rain* | Wind** | Luminosity | Snow |
|---|---|---|---|---|---|---|---|
| 1777970516 | 15.56° C | 65% | 1001.3 hPa | 0 mm | 0.89 m/s, 318° | 0 W/m² | - |
| 1777970202 | 15.56° C | 66% | 1001.2 hPa | 0 mm | 0.89 m/s, 235° | 0 W/m² | - |
| 1777969898 | 15.56° C | 66% | 1001.5 hPa | 0 mm | 1.34 m/s, 230° | 0 W/m² | - |
| 1777969594 | 15.56° C | 65% | 1001.6 hPa | 0 mm | 1.79 m/s, 251° | 0 W/m² | - |
| 1777969291 | 15.56° C | 65% | 1001.6 hPa | 0 mm | 0.89 m/s, 266° | 0 W/m² | - |
| 1777968987 | 15° C | 64% | 1001.7 hPa | 0 mm | 0.89 m/s, 260° | 0 W/m² | - |
| 1777968697 | 15° C | 66% | 1001.7 hPa | 0 mm | 1.34 m/s, 255° | 0 W/m² | - |
| 1777968381 | 15° C | 67% | 1001.5 hPa | 0 mm | 0 m/s | 0 W/m² | - |
| 1777968077 | 15° C | 68% | 1001.5 hPa | 0 mm | 1.34 m/s, 221° | 0 W/m² | - |
| 1777967774 | 14.44° C | 71% | 1001.7 hPa | 0 mm | 0.45 m/s, 253° | 0 W/m² | - |
| 1777967470 | 14.44° C | 71% | 1001.7 hPa | 0.51 mm | 2.68 m/s, 230° | 0 W/m² | - |
| 1777967167 | 14.44° C | 71% | 1001.9 hPa | 1.78 mm | 1.79 m/s, 234° | 0 W/m² | - |
| 1777966864 | 15° C | 67% | 1001.9 hPa | 1.27 mm | 4.92 m/s, 245° | 0 W/m² | - |
| 1777966562 | 15.56° C | 65% | 1001.8 hPa | 0.51 mm | 3.13 m/s, 236° | 0 W/m² | - |
| 1777966260 | 16.11° C | 61% | 1001.7 hPa | 0.51 mm | 2.68 m/s, 265° | 0 W/m² | - |
| 1777965955 | 16.11° C | 56% | 1001.2 hPa | 0 mm | 2.68 m/s, 247° | 0 W/m² | - |
| 1777965652 | 16.11° C | 58% | 1001.2 hPa | 0 mm | 0.89 m/s, 277° | 0 W/m² | - |
| 1777965347 | 15.56° C | 58% | 1000.9 hPa | 1.27 mm | 4.92 m/s, 236° | 0 W/m² | - |
| 1777965046 | 16.11° C | 58% | 1001 hPa | 0.51 mm | 2.68 m/s, 227° | 0 W/m² | - |
| 1777964743 | 17.22° C | 49% | 1000.9 hPa | 0 mm | 5.36 m/s, 233° | 0 W/m² | - |
| 1777964439 | 16.67° C | 49% | 1000.9 hPa | 0 mm | 2.68 m/s, 236° | 0 W/m² | - |
| 1777964135 | 16.67° C | 49% | 1001 hPa | 0 mm | 4.02 m/s, 252° | 0 W/m² | - |
| 1777963832 | 16.67° C | 49% | 1000.9 hPa | 0 mm | 3.58 m/s, 236° | 0 W/m² | - |
| 1777963528 | 16.67° C | 50% | 1001.1 hPa | 0 mm | 1.34 m/s, 246° | 0 W/m² | - |
| 1777963227 | 16.11° C | 50% | 1001.1 hPa | 0 mm | 3.58 m/s, 251° | 0 W/m² | - |
* Rain latest hour (hover to see other rain measurements)
** Current wind speed in m/s (hover to see current wind gust speed)